[[{"header":{"parameterUnit":"m.s-1","parameterCategory":1,"la1":30.2991,"la2":30.254,"lo1":-89.0895,"lo2":-89.0444,"dy":0.0017,"dx":0.0017,"nx":28,"ny":28,"refTime":"2024-03-19T09:00:00:Z","depth":0,"parameterNumber":2,"parameterNumberName":"U-component_of_WINDS"},"data":[0,0,0,0,0,0,0,0,0,0,0,0,0,0,0,0,0,0,0,0,0,0,0,0,0,0,0,0,0,0,0,0,0,0,0,0,0,0,0,0,0,0,0,0,0,0,0,0,0,0,0,0,0,0,0,0,0,0,-2.0587,-2.0588,0,-2.0663,-2.0664,-2.0665,-2.0573,-2.057,-2.0566,-2.0563,-2.0643,-2.0649,-2.0654,0,0,0,0,0,0,0,0,0,0,0,0,0,-2.0361,-2.0366,-2.0587,-2.0588,-2.0589,-2.0663,-2.0664,-2.0665,-2.0574,-2.0569,-2.0565,-2.0561,-2.0642,-2.0648,-2.0654,0,0,0,0,0,0,0,0,0,0,0,0,0,-2.0451,-2.0368,-2.0587,-2.0552,-2.0549,-2.0663,-2.0664,-2.0666,-2.0574,-2.0569,-2.0564,-2.0559,-2.064,-2.0647,-2.0655,-2.0807,0,0,-2.068,-2.0683,0,0,0,0,0,0,0,0,-2.0446,-2.0459,-2.0556,-2.0554,-2.0552,-2.0603,-2.0614,-2.0713,-2.0576,-2.0565,-2.0563,-2.0557,-2.0634,-2.0642,-2.0668,-2.0811,-2.0814,-2.068,-2.0685,-2.0689,-2.0691,0,0,0,0,0,0,0,-2.044,-2.0456,-2.0617,-2.0557,-2.0555,-2.0533,-2.054,-2.0633,-2.0628,-2.0566,-2.0559,-2.0569,-2.0632,-2.0661,-2.0669,-2.0816,-2.068,-2.0687,-2.0692,-2.0695,-2.1087,-2.1092,0,0,0,0,0,0,-2.0438,-2.0451,-2.0615,-2.0619,-2.0485,-2.0541,-2.0549,-2.0592,-2.0626,-2.0627,-2.0574,-2.0565,-2.065,-2.066,-2.0672,-2.0853,-2.0689,-2.0696,-2.0701,-2.1081,-2.1088,-2.1094,0,0,0,0,0,0,-2.0433,-2.0453,-2.0612,-2.0533,-2.0552,-2.055,-2.06,-2.0596,-2.0625,-2.0632,-2.0631,-2.0604,-2.0646,-2.0661,-2.0774,-2.0854,-2.07,-2.0707,-2.1074,-2.1083,-2.1091,-2.1216,0,0,0,0,0,0,-2.0427,-2.0452,-2.051,-2.0535,-2.0556,-2.0713,-2.0605,-2.0601,-2.0638,-2.0628,-2.066,-2.0661,-2.0643,-2.0763,-2.0782,-2.0863,-2.0713,-2.1067,-2.1078,-2.1088,-2.1205,-2.1228,-2.1247,0,0,0,0,0,-2.0419,-2.0543,-2.0513,-2.0534,-2.0629,-2.0718,-2.073,-2.0707,-2.0645,-2.0704,-2.0708,-2.066,-2.0842,-2.0775,-2.0796,-2.088,-2.1062,-2.1075,-2.1087,-2.1195,-2.1223,-2.1247,0,0,0,0,0,0,-2.0528,-2.0545,-2.0513,-2.0648,-2.0682,-2.0702,-2.0775,-2.0737,-2.0789,-2.0777,-2.0746,-2.0754,-2.0875,-2.0888,-2.0814,-2.1029,-2.0942,-2.0959,-2.1017,-2.1043,-2.1064,-2.106,-2.072,0,0,0,0,0,-2.0567,-2.0638,-2.0649,-2.0767,-2.0786,-2.0778,-2.0816,-2.0794,-2.0828,-2.0843,-2.0855,-2.0891,-2.0956,-2.1,-2.106,-2.1205,-2.1211,-2.1273,-2.1294,-2.1311,-2.1328,-2.1406,-2.1434,-2.1135,-2.1135,-2.1135,0,0,-2.065,-2.0668,-2.0715,-2.079,-2.0813,-2.0888,-2.0791,-2.0873,-2.0928,-2.0855,-2.0964,-2.0974,-2.1011,-2.1141,-2.1199,-2.1156,-2.1411,-2.1327,-2.1341,-2.1348,-2.1421,-2.145,-2.1475,-2.1144,-2.1142,-2.1141,0,0,-2.084,-2.086,-2.0961,-2.0986,-2.1022,-2.1016,-2.104,-2.1065,-2.107,-2.1177,-2.1124,-2.1188,-2.1301,-2.133,-2.1359,-2.1556,-2.1514,-2.1577,-2.1689,-2.1765,-2.1789,-2.1809,-2.1881,-2.1908,-2.1592,-2.1593,-2.1593,0,-2.0939,-2.1048,-2.1018,-2.1104,-2.1139,-2.1074,-2.1176,-2.1202,-2.1257,-2.1283,-2.1233,-2.1372,-2.1392,-2.1528,-2.1577,-2.1602,-2.1629,-2.1575,-2.1788,-2.1808,-2.1827,-2.1895,-2.1922,-2.16,-2.1599,-2.1598,-2.1598,0,-2.1168,-2.1245,-2.1322,-2.1376,-2.1418,-2.1512,-2.1496,-2.1543,-2.1517,-2.1516,-2.1626,-2.1647,-2.1711,-2.1741,-2.1717,-2.1874,-2.1846,-2.1792,-2.1705,-2.1864,-2.1927,-2.1953,-2.1611,-2.1608,-2.1606,-2.1604,0,0,-2.1432,-2.1466,-2.1495,-2.1518,-2.1553,-2.1612,-2.1702,-2.1763,-2.1804,-2.1843,-2.1919,-2.2014,-2.1964,-2.1998,-2.1976,-2.2042,-2.2199,-2.1981,-2.1981,-2.2022,-2.2374,-2.2416,-2.2447,-2.2169,-2.2174,-2.2178,-2.2372,0,-2.1623,-2.178,-2.1754,-2.1906,-2.1977,-2.1915,-2.1994,-2.2023,-2.2024,-2.2083,-2.2083,-2.2152,-2.208,-2.21,-2.2163,-2.2167,-2.227,-2.2152,-2.2241,-2.2245,-2.2237,-2.248,-2.2525,-2.2707,-2.2396,-2.24,-2.2403,0,-2.1868,-2.1916,-2.2075,-2.2097,-2.2126,-2.2197,-2.2251,-2.2308,-2.234,-2.2335,-2.2372,-2.2337,-2.2427,-2.2335,-2.2459,-2.238,-2.2414,-2.2421,-2.2427,-2.2437,-2.2336,-2.2499,-2.2765,-2.2793,-2.2442,-2.2439,-2.2436,0,-2.2047,-2.215,-2.2259,-2.228,-2.2309,-2.2361,-2.2375,-2.2401,-2.244,-2.2486,-2.251,-2.2566,-2.2598,-2.2642,-2.2624,-2.2558,-2.2752,-2.2658,-2.2751,-2.2752,-2.2798,-2.2796,-2.3076,-2.2816,-2.2815,-2.2815,-2.2814,0,-2.2266,-2.2366,-2.234,-2.2407,-2.2517,-2.2485,-2.2595,-2.2602,-2.2626,-2.2693,-2.2642,-2.2706,-2.2676,-2.2738,-2.2723,-2.2829,-2.2843,-2.2842,-2.2838,-2.2849,-2.2849,-2.2873,-2.2861,-2.2822,-2.282,-2.2819,-2.2818,0,-2.2486,-2.2472,-2.2587,-2.2603,-2.261,-2.2691,-2.2705,-2.2767,-2.2762,-2.2848,-2.2866,-2.2859,-2.2929,-2.2913,-2.2991,-2.298,-2.3114,-2.3092,-2.3104,-2.3099,-2.3194,-2.3187,-2.3501,-2.3542,-2.3253,-2.3256,-2.3258,0,-2.2628,-2.2703,-2.2728,-2.2769,-2.2787,-2.2854,-2.2892,-2.2862,-2.2904,-2.2945,-2.3003,-2.3068,-2.312,-2.3234,-2.3236,-2.3295,-2.3275,-2.3381,-2.3284,-2.3293,-2.328,-2.3277,-2.3284,-2.3402,-2.3405,-2.3408,-2.341,0,-2.2882,-2.287,-2.2927,-2.2982,-2.3029,-2.307,-2.3107,-2.3143,-2.3117,-2.3166,-2.3237,-2.3277,-2.3354,-2.342,-2.3474,-2.3488,-2.3446,-2.344,-2.3465,-2.3479,-2.3483,-2.3484,-2.3159,-2.3434,-2.3432,-2.343,-2.3429,-2.3428,-2.3068,-2.3133,-2.316,-2.3225,-2.3248,-2.3284,-2.3343,-2.3345,-2.3403,-2.3464,-2.3443,-2.3524,-2.3552,-2.3619,-2.364,-2.3703,-2.3663,-2.3699,-2.3709,-2.3719,-2.3731,-2.3471,-2.3712,-2.3711,-2.3711,-2.371,-2.371,0,-2.3321,-2.3335,-2.3395,-2.3447,-2.3498,-2.3451,-2.3489,-2.3535,-2.3607,-2.3636,-2.3687,-2.3768,-2.3831,-2.3836,-2.3895,-2.3945,-2.3927,-2.3961,-2.3959,-2.3963,-2.3763,-2.3736,-2.3975,-2.3975,-2.3975,-2.3975,-2.3975,-2.3975,-2.3459,-2.3566,-2.3558,-2.3675,-2.3688,-2.3767,-2.3792,-2.3824,-2.3848,-2.394,-2.3992,-2.3994,-2.4014,-2.4074,-2.413,-2.4129,-2.4155,-2.4197,-2.419,-2.4004,-2.3977,-2.3952,-2.3927,-2.4203,-2.4203,-2.4386,-2.4388,-2.4389]},{"header":{"parameterUnit":"m.s-1","parameterCategory":1,"la1":30.2991,"la2":30.254,"lo1":-89.0895,"lo2":-89.0444,"dy":0.0017,"dx":0.0017,"nx":28,"ny":28,"refTime":"2024-03-19T09:00:00:Z","depth":0,"parameterNumber":3,"parameterNumberName":"V-component_of_WINDS"},"data":[0,0,0,0,0,0,0,0,0,0,0,0,0,0,0,0,0,0,0,0,0,0,0,0,0,0,0,0,0,0,0,0,0,0,0,0,0,0,0,0,0,0,0,0,0,0,0,0,0,0,0,0,0,0,0,0,0,0,-6.0301,-6.0303,0,-6.0458,-6.046,-6.0462,-6.0376,-6.0372,-6.0368,-6.0363,-6.0522,-6.053,-6.0538,0,0,0,0,0,0,0,0,0,0,0,0,0,-5.9923,-5.993,-6.0301,-6.0303,-6.0305,-6.0458,-6.046,-6.0462,-6.0377,-6.0372,-6.0366,-6.0362,-6.0519,-6.0529,-6.0538,0,0,0,0,0,0,0,0,0,0,0,0,0,-6.0084,-5.9933,-6.03,-6.0281,-6.028,-6.0457,-6.046,-6.0463,-6.0378,-6.0371,-6.0365,-6.0359,-6.0516,-6.0528,-6.054,-6.0744,0,0,-6.0577,-6.0583,0,0,0,0,0,0,0,0,-6.0075,-6.0098,-6.0282,-6.0282,-6.0282,-6.0391,-6.0384,-6.0557,-6.038,-6.0341,-6.0363,-6.0356,-6.0483,-6.0498,-6.0541,-6.0751,-6.0758,-6.0578,-6.0586,-6.0591,-6.0595,0,0,0,0,0,0,0,-6.0064,-6.0091,-6.0363,-6.0284,-6.0285,-6.0263,-6.0279,-6.0417,-6.0446,-6.0344,-6.0338,-6.0358,-6.0482,-6.053,-6.0544,-6.076,-6.0578,-6.0589,-6.0597,-6.0601,-6.1144,-6.1151,0,0,0,0,0,0,-6.0055,-6.0082,-6.0358,-6.0367,-6.0161,-6.0275,-6.0292,-6.0363,-6.0444,-6.0451,-6.0363,-6.0353,-6.0512,-6.053,-6.0549,-6.0793,-6.0591,-6.0603,-6.061,-6.1137,-6.1146,-6.1154,0,0,0,0,0,0,-6.0047,-6.008,-6.0351,-6.0223,-6.0256,-6.0288,-6.0367,-6.0369,-6.0416,-6.0459,-6.0463,-6.0407,-6.0507,-6.0532,-6.0696,-6.0798,-6.0608,-6.0619,-6.1129,-6.114,-6.115,-6.1284,0,0,0,0,0,0,-6.0036,-6.0078,-6.0157,-6.0226,-6.0263,-6.0497,-6.0374,-6.0377,-6.0438,-6.0427,-6.0501,-6.0507,-6.0504,-6.0678,-6.0708,-6.0811,-6.0629,-6.112,-6.1134,-6.1146,-6.127,-6.1297,-6.1321,0,0,0,0,0,-6.0023,-6.0188,-6.0161,-6.0195,-6.0363,-6.0503,-6.0525,-6.0519,-6.0447,-6.0526,-6.0553,-6.0505,-6.0782,-6.0696,-6.0729,-6.0837,-6.1114,-6.113,-6.1145,-6.1259,-6.1292,-6.132,0,0,0,0,0,0,-6.0129,-6.0197,-6.0168,-6.036,-6.0427,-6.0489,-6.0588,-6.0554,-6.0642,-6.0628,-6.0616,-6.0633,-6.0804,-6.0836,-6.074,-6.1038,-6.0936,-6.0959,-6.1011,-6.1043,-6.1068,-6.1056,-6.0639,0,0,0,0,0,-6.0175,-6.0285,-6.0337,-6.0501,-6.0536,-6.0557,-6.0618,-6.0607,-6.0676,-6.0703,-6.0742,-6.0809,-6.0911,-6.0978,-6.1075,-6.1274,-6.1288,-6.1364,-6.1389,-6.141,-6.1431,-6.1537,-6.1572,-6.1206,-6.1206,-6.1205,0,0,-6.0271,-6.0321,-6.0391,-6.0524,-6.0574,-6.0687,-6.0581,-6.0705,-6.0788,-6.0721,-6.0879,-6.091,-6.0984,-6.1166,-6.1248,-6.1199,-6.1534,-6.143,-6.1446,-6.1456,-6.1557,-6.1592,-6.1622,-6.1217,-6.1215,-6.1213,0,0,-6.0503,-6.0553,-6.0695,-6.0747,-6.0825,-6.0837,-6.0871,-6.0939,-6.0957,-6.1115,-6.1067,-6.1165,-6.1341,-6.1395,-6.1446,-6.1697,-6.1656,-6.1728,-6.186,-6.1965,-6.1993,-6.2019,-6.2108,-6.214,-6.1748,-6.1749,-6.1749,0,-6.0612,-6.0781,-6.0772,-6.0899,-6.0958,-6.0904,-6.1047,-6.1098,-6.1203,-6.1245,-6.1187,-6.1407,-6.1453,-6.1646,-6.1708,-6.1751,-6.1788,-6.172,-6.199,-6.2016,-6.2039,-6.2124,-6.2158,-6.1757,-6.1756,-6.1755,-6.1754,0,-6.0911,-6.1028,-6.1134,-6.1237,-6.1308,-6.1443,-6.1452,-6.1525,-6.1508,-6.1526,-6.1687,-6.174,-6.1845,-6.189,-6.1875,-6.2082,-6.2048,-6.1991,-6.1889,-6.2083,-6.2162,-6.2195,-6.1769,-6.1766,-6.1764,-6.1761,0,0,-6.1216,-6.1312,-6.1351,-6.1397,-6.1478,-6.1568,-6.1699,-6.1803,-6.1865,-6.1938,-6.2048,-6.2197,-6.2144,-6.2202,-6.2192,-6.2283,-6.2478,-6.2214,-6.2216,-6.2262,-6.2709,-6.2752,-6.279,-6.2451,-6.2457,-6.2462,-6.2703,0,-6.1453,-6.1685,-6.1679,-6.1893,-6.2001,-6.195,-6.2064,-6.2125,-6.2145,-6.2238,-6.2259,-6.2365,-6.2288,-6.2322,-6.241,-6.2436,-6.2568,-6.2418,-6.2551,-6.2556,-6.2535,-6.2832,-6.2878,-6.3103,-6.2734,-6.2739,-6.2743,0,-6.1762,-6.1847,-6.2072,-6.2136,-6.2181,-6.2284,-6.2378,-6.2468,-6.2536,-6.2543,-6.2608,-6.2582,-6.2714,-6.2607,-6.2787,-6.2686,-6.2739,-6.276,-6.2769,-6.2781,-6.2662,-6.2853,-6.3175,-6.3209,-6.2792,-6.2788,-6.2784,0,-6.1962,-6.2132,-6.2288,-6.2329,-6.2408,-6.2481,-6.2517,-6.2579,-6.2641,-6.2723,-6.2763,-6.2859,-6.2911,-6.2985,-6.2986,-6.2908,-6.3168,-6.3061,-6.3178,-6.3178,-6.3236,-6.3232,-6.3571,-6.327,-6.3269,-6.3268,-6.3268,0,-6.2228,-6.2368,-6.2379,-6.2476,-6.263,-6.2622,-6.2774,-6.2803,-6.2858,-6.2958,-6.2918,-6.3013,-6.3008,-6.3103,-6.3104,-6.3253,-6.3277,-6.3286,-6.3285,-6.329,-6.3289,-6.3326,-6.331,-6.3277,-6.3275,-6.3274,-6.3272,0,-6.2479,-6.2492,-6.2659,-6.272,-6.2738,-6.2849,-6.29,-6.2991,-6.3006,-6.3134,-6.3163,-6.3187,-6.3297,-6.3305,-6.3431,-6.3432,-6.3613,-6.3594,-6.3591,-6.3587,-6.3703,-6.3692,-6.4078,-6.4128,-6.3794,-6.3797,-6.38,0,-6.2648,-6.2755,-6.2827,-6.2891,-6.2932,-6.3036,-6.3099,-6.3094,-6.3162,-6.3246,-6.3327,-6.3433,-6.3518,-6.3695,-6.3723,-6.382,-6.3803,-6.3932,-6.3817,-6.3819,-6.3805,-6.3799,-6.381,-6.3954,-6.3958,-6.3961,-6.3963,0,-6.2948,-6.2949,-6.3042,-6.3139,-6.3215,-6.3291,-6.3361,-6.3415,-6.3418,-6.3496,-6.3608,-6.3674,-6.3803,-6.3909,-6.4003,-6.4038,-6.4002,-6.3999,-6.4031,-6.4038,-6.4032,-6.4037,-6.3652,-6.399,-6.3988,-6.3986,-6.3984,-6.3983,-6.3163,-6.3255,-6.332,-6.3425,-6.3477,-6.3543,-6.3631,-6.3658,-6.3752,-6.3857,-6.3848,-6.3972,-6.4035,-6.4158,-6.42,-6.4296,-6.4253,-6.4299,-6.4311,-6.4323,-6.4335,-6.4016,-6.4313,-6.4312,-6.4312,-6.4311,-6.4311,0,-6.346,-6.3499,-6.3596,-6.3696,-6.3778,-6.3737,-6.3811,-6.3883,-6.3993,-6.4056,-6.414,-6.4268,-6.437,-6.4406,-6.4504,-6.4574,-6.456,-6.4601,-6.4596,-6.4604,-6.4368,-6.4331,-6.461,-6.461,-6.461,-6.461,-6.461,-6.461,-6.3625,-6.3778,-6.3787,-6.3964,-6.4002,-6.4124,-6.417,-6.4231,-6.428,-6.4426,-6.451,-6.4533,-6.4585,-6.4686,-6.4777,-6.4785,-6.4823,-6.4871,-6.4872,-6.4651,-6.4621,-6.4592,-6.4557,-6.4879,-6.488,-6.51,-6.5102,-6.5103]}]]